This is the latest recevied weather packets stored in our database for station/object N5SRF. If no packets are shown the sender has not sent any weather packets the latest 10 day(s).
| Time | Temp. | Humidity | Pressure | Rain* | Wind** | Luminosity | Snow |
|---|---|---|---|---|---|---|---|
| 1777927987 | 27.78° C | 58% | 1016 hPa | 0 mm | - | 633 W/m² | - |
| 1777927685 | 27.22° C | 58% | 1016.2 hPa | 0 mm | - | 478 W/m² | - |
| 1777927383 | 27.22° C | 58% | 1016.1 hPa | 0 mm | - | 299 W/m² | - |
| 1777927082 | 28.33° C | 55% | 1016.3 hPa | 0 mm | - | 241 W/m² | - |
| 1777926778 | 28.89° C | 57% | 1016.2 hPa | 0 mm | - | 707 W/m² | - |
| 1777926473 | 28.33° C | 54% | 1016.2 hPa | 0 mm | - | 634 W/m² | - |
| 1777926171 | 28.33° C | 55% | 1016.5 hPa | 0 mm | - | 721 W/m² | - |
| 1777925867 | 28.33° C | 54% | 1016.8 hPa | 0 mm | - | 451 W/m² | - |
| 1777925564 | 28.33° C | 54% | 1017 hPa | 0 mm | - | 716 W/m² | - |
| 1777925263 | 27.78° C | 56% | 1016.9 hPa | 0 mm | - | 687 W/m² | - |
| 1777924958 | 28.33° C | 53% | 1016.8 hPa | 0 mm | - | 320 W/m² | - |
| 1777924655 | 28.33° C | 55% | 1016.9 hPa | 0 mm | - | 771 W/m² | - |
| 1777924351 | 27.78° C | 57% | 1017.1 hPa | 0 mm | - | 793 W/m² | - |
| 1777924048 | 27.78° C | 55% | 1017.1 hPa | 0 mm | - | 807 W/m² | - |
| 1777923744 | 27.78° C | 54% | 1017.3 hPa | 0 mm | - | 882 W/m² | - |
| 1777923440 | 27.78° C | 53% | 1017.3 hPa | 0 mm | - | 386 W/m² | - |
| 1777923138 | 27.78° C | 53% | 1017.2 hPa | 0 mm | - | 510 W/m² | - |
| 1777922836 | 28.33° C | 51% | 1017.3 hPa | 0 mm | - | 756 W/m² | - |
| 1777922534 | 27.78° C | 55% | 1017.3 hPa | 0 mm | - | 815 W/m² | - |
| 1777922233 | 27.22° C | 54% | 1017.5 hPa | 0 mm | - | 199 W/m² | - |
| 1777921929 | 27.22° C | 55% | 1017.6 hPa | 0 mm | - | 826 W/m² | - |
| 1777921624 | 27.22° C | 54% | 1017.5 hPa | 0 mm | - | 762 W/m² | - |
| 1777921321 | 26.67° C | 57% | 1017.5 hPa | 0 mm | - | 837 W/m² | - |
| 1777921017 | 27.22° C | 53% | 1017.7 hPa | 0 mm | - | 789 W/m² | - |
| 1777920714 | 27.78° C | 55% | 1017.7 hPa | 0 mm | - | 775 W/m² | - |
* Rain latest hour (hover to see other rain measurements)
** Current wind speed in m/s (hover to see current wind gust speed)